[[{"header":{"parameterUnit":"m.s-1","parameterCategory":1,"la1":30.2991,"la2":30.254,"lo1":-89.0895,"lo2":-89.0444,"dy":0.0017,"dx":0.0017,"nx":28,"ny":28,"refTime":"2023-07-22T03:00:00:Z","depth":0,"parameterNumber":2,"parameterNumberName":"U-component_of_WINDS"},"data":[0,0,0,0,0,0,0,0,0,0,0,0,0,0,0,0,0,0,0,0,0,0,0,0,0,0,0,0,0,0,0,0,0,0,0,0,0,0,0,0,0,0,0,0,0,0,0,0,0,0,0,0,0,0,0,0,0,0,2.7237,2.7238,0,2.7323,2.7324,2.7325,2.7309,2.7307,2.7306,2.7304,2.7398,2.7402,2.7406,0,0,0,0,0,0,0,0,0,0,0,0,0,2.7066,2.707,2.7237,2.7238,2.7239,2.7323,2.7324,2.7325,2.7309,2.7307,2.7305,2.7304,2.7397,2.7402,2.7407,0,0,0,0,0,0,0,0,0,0,0,0,0,2.7145,2.7071,2.7237,2.7241,2.7242,2.7322,2.7324,2.7325,2.731,2.7307,2.7305,2.7303,2.7396,2.7401,2.7407,2.749,0,0,2.7425,2.7428,0,0,0,0,0,0,0,0,2.7141,2.7152,2.7239,2.7241,2.7242,2.7303,2.7298,2.7381,2.731,2.7284,2.7304,2.7302,2.7369,2.7377,2.7398,2.7495,2.7499,2.7426,2.7429,2.7432,2.7434,0,0,0,0,0,0,0,2.7135,2.7148,2.7271,2.7241,2.7243,2.7241,2.725,2.7314,2.7339,2.7286,2.7285,2.7295,2.7369,2.7393,2.74,2.75,2.7426,2.7431,2.7435,2.7437,2.7672,2.7675,0,0,0,0,0,0,2.7128,2.7143,2.7268,2.7274,2.7185,2.7246,2.7256,2.7286,2.7338,2.7343,2.7297,2.7294,2.7384,2.7393,2.7404,2.7506,2.7432,2.7437,2.7441,2.7669,2.7673,2.7676,0,0,0,0,0,0,2.7124,2.7139,2.7265,2.7208,2.7224,2.7251,2.7285,2.7289,2.7312,2.7346,2.7351,2.7316,2.7382,2.7395,2.7469,2.7509,2.744,2.7445,2.7666,2.767,2.7674,2.7711,0,0,0,0,0,0,2.7119,2.7138,2.7168,2.7209,2.7227,2.7327,2.7288,2.7292,2.7321,2.7318,2.7365,2.7371,2.7381,2.746,2.7475,2.7516,2.745,2.7663,2.7668,2.7673,2.7706,2.7716,2.7724,0,0,0,0,0,2.7113,2.7175,2.7169,2.7184,2.7265,2.7329,2.734,2.7349,2.7324,2.7356,2.7379,2.7369,2.7502,2.7468,2.7484,2.7528,2.766,2.7667,2.7672,2.7702,2.7714,2.7724,0,0,0,0,0,0,2.7139,2.7181,2.7174,2.7251,2.7287,2.7326,2.7366,2.736,2.7405,2.74,2.7412,2.7423,2.7498,2.752,2.7481,2.7613,2.7578,2.7588,2.7595,2.7607,2.7615,2.7609,2.7455,0,0,0,0,0,2.7154,2.72,2.7235,2.7299,2.7317,2.7339,2.7367,2.7371,2.7409,2.7424,2.7452,2.7491,2.7542,2.7575,2.7624,2.7709,2.7721,2.7747,2.7756,2.7763,2.7772,2.7822,2.7835,2.7695,2.7695,2.7695,0,0,2.7185,2.7213,2.7242,2.7305,2.7333,2.7384,2.7351,2.7406,2.7444,2.7433,2.7505,2.7527,2.7571,2.7652,2.7689,2.7672,2.7813,2.7771,2.7776,2.7781,2.7829,2.7842,2.7854,2.77,2.7699,2.7698,0,0,2.7267,2.7292,2.735,2.7378,2.7421,2.7435,2.7449,2.749,2.7503,2.7575,2.7568,2.7615,2.7702,2.7734,2.7762,2.7859,2.7853,2.7875,2.7921,2.797,2.7981,2.799,2.8027,2.804,2.7883,2.7883,2.7883,0,2.7301,2.7375,2.7381,2.7436,2.7466,2.7457,2.7517,2.7545,2.7602,2.7623,2.7604,2.7714,2.7743,2.7832,2.7856,2.7878,2.7897,2.787,2.7978,2.7988,2.7997,2.8033,2.8046,2.7886,2.7885,2.7885,2.7885,0,2.7416,2.7467,2.7509,2.7562,2.7597,2.7654,2.7672,2.7706,2.7707,2.7725,2.7799,2.7834,2.789,2.7911,2.7914,2.8002,2.7991,2.7975,2.7941,2.8013,2.8047,2.806,2.7889,2.7888,2.7888,2.7887,0,0,2.7517,2.7574,2.7589,2.7615,2.7661,2.7702,2.7761,2.7814,2.7845,2.7885,2.7936,2.801,2.7996,2.8027,2.8034,2.8076,2.8153,2.8055,2.8056,2.8074,2.8256,2.8269,2.8285,2.8149,2.8151,2.8154,2.8253,0,2.7606,2.7707,2.7715,2.7807,2.7856,2.7849,2.7901,2.7936,2.7954,2.8001,2.8021,2.8074,2.805,2.807,2.8111,2.8135,2.8191,2.8128,2.82,2.8202,2.819,2.8302,2.8316,2.8408,2.8266,2.8268,2.827,0,2.7722,2.7765,2.7861,2.7903,2.7924,2.797,2.8021,2.8064,2.8106,2.8116,2.8152,2.8153,2.8216,2.8179,2.8268,2.8225,2.8255,2.8271,2.8275,2.8284,2.8242,2.8316,2.8437,2.8452,2.829,2.8289,2.8287,0,2.779,2.7871,2.794,2.7961,2.8011,2.8044,2.8066,2.8105,2.8138,2.8183,2.8205,2.8257,2.8287,2.8329,2.8345,2.8316,2.8434,2.8397,2.8447,2.8447,2.8474,2.8472,2.8604,2.849,2.8489,2.8489,2.8489,0,2.7889,2.7949,2.7971,2.8014,2.8082,2.8092,2.816,2.8181,2.8216,2.8265,2.8262,2.8308,2.8326,2.8376,2.8389,2.8462,2.8475,2.8487,2.849,2.8489,2.8487,2.851,2.8505,2.8493,2.8492,2.8491,2.8491,0,2.7976,2.7993,2.8068,2.8109,2.812,2.8169,2.8205,2.8248,2.8265,2.8327,2.8342,2.837,2.8429,2.8449,2.8521,2.853,2.8616,2.8612,2.8601,2.8602,2.8652,2.8648,2.8804,2.8826,2.8696,2.8697,2.8698,0,2.8039,2.8085,2.8131,2.8162,2.8186,2.8237,2.827,2.8282,2.8317,2.8369,2.8406,2.8464,2.8511,2.8606,2.8634,2.869,2.8689,2.874,2.8697,2.8695,2.8693,2.869,2.8696,2.8749,2.875,2.8751,2.8752,0,2.815,2.8156,2.8203,2.8253,2.8292,2.8333,2.8372,2.8399,2.8418,2.8458,2.8517,2.8553,2.8626,2.8685,2.8742,2.8768,2.8765,2.8765,2.878,2.8779,2.8772,2.8779,2.8625,2.8762,2.8761,2.876,2.8759,2.8759,2.8229,2.827,2.8309,2.8362,2.8393,2.843,2.8472,2.8495,2.8544,2.8603,2.8608,2.8673,2.8716,2.8791,2.882,2.8873,2.8859,2.888,2.8885,2.8891,2.8896,2.8762,2.8883,2.8883,2.8882,2.8882,2.8882,0,2.8341,2.8366,2.8414,2.8469,2.8512,2.8502,2.8546,2.8583,2.8639,2.8678,2.8725,2.8794,2.8852,2.8884,2.8942,2.8978,2.8979,2.8994,2.8992,2.8999,2.8904,2.8886,2.8993,2.8993,2.8993,2.8992,2.8992,2.8992,2.8405,2.8475,2.8487,2.8574,2.8599,2.8661,2.8687,2.8722,2.8754,2.8831,2.8878,2.8898,2.8936,2.8997,2.905,2.9058,2.9081,2.9098,2.9105,2.9016,2.9005,2.8994,2.8978,2.9102,2.9102,2.9196,2.9197,2.9197]},{"header":{"parameterUnit":"m.s-1","parameterCategory":1,"la1":30.2991,"la2":30.254,"lo1":-89.0895,"lo2":-89.0444,"dy":0.0017,"dx":0.0017,"nx":28,"ny":28,"refTime":"2023-07-22T03:00:00:Z","depth":0,"parameterNumber":3,"parameterNumberName":"V-component_of_WINDS"},"data":[0,0,0,0,0,0,0,0,0,0,0,0,0,0,0,0,0,0,0,0,0,0,0,0,0,0,0,0,0,0,0,0,0,0,0,0,0,0,0,0,0,0,0,0,0,0,0,0,0,0,0,0,0,0,0,0,0,0,2.5643,2.5644,0,2.5705,2.5706,2.5707,2.5704,2.5703,2.5702,2.5701,2.5762,2.5765,2.5767,0,0,0,0,0,0,0,0,0,0,0,0,0,2.5517,2.5519,2.5643,2.5644,2.5645,2.5705,2.5706,2.5707,2.5704,2.5703,2.5702,2.5701,2.5762,2.5765,2.5767,0,0,0,0,0,0,0,0,0,0,0,0,0,2.5575,2.552,2.5643,2.5651,2.5652,2.5705,2.5706,2.5707,2.5704,2.5703,2.5702,2.57,2.5761,2.5764,2.5768,2.5817,0,0,2.5779,2.5781,0,0,0,0,0,0,0,0,2.5571,2.5579,2.5649,2.565,2.5652,2.5695,2.5684,2.5744,2.5704,2.5684,2.5701,2.57,2.5741,2.5746,2.5761,2.582,2.5822,2.5779,2.5782,2.5783,2.5784,0,0,0,0,0,0,0,2.5567,2.5577,2.5668,2.565,2.5651,2.5649,2.5656,2.5695,2.5719,2.5686,2.5686,2.5693,2.5742,2.5757,2.5762,2.5823,2.5779,2.5783,2.5785,2.5786,2.592,2.5921,0,0,0,0,0,0,2.5562,2.5573,2.5666,2.5669,2.5608,2.5652,2.566,2.5683,2.5719,2.5723,2.5694,2.5693,2.5752,2.5758,2.5764,2.582,2.5783,2.5787,2.5789,2.5918,2.592,2.5921,0,0,0,0,0,0,2.556,2.5571,2.5663,2.5621,2.5633,2.5656,2.5681,2.5685,2.57,2.5725,2.5729,2.5706,2.5751,2.5759,2.5803,2.5823,2.5788,2.5792,2.5917,2.5919,2.5921,2.5935,0,0,0,0,0,0,2.5556,2.557,2.559,2.5622,2.5635,2.5702,2.5683,2.5687,2.5707,2.5705,2.5737,2.5741,2.575,2.5797,2.5806,2.5827,2.5794,2.5915,2.5918,2.592,2.5933,2.5937,2.5941,0,0,0,0,0,2.5552,2.5592,2.5591,2.5602,2.5661,2.5703,2.5711,2.5721,2.5709,2.5728,2.5743,2.574,2.5819,2.5802,2.5812,2.5834,2.5914,2.5917,2.592,2.5931,2.5936,2.5941,0,0,0,0,0,0,2.5562,2.5597,2.5596,2.5648,2.5673,2.5703,2.5728,2.5727,2.5756,2.5753,2.5764,2.5771,2.5814,2.5829,2.5809,2.588,2.5864,2.587,2.5869,2.5875,2.5879,2.5874,2.5797,0,0,0,0,0,2.5571,2.5603,2.5631,2.5675,2.5687,2.5705,2.5724,2.5729,2.5755,2.5765,2.5784,2.5808,2.5838,2.5857,2.5887,2.5935,2.594,2.5955,2.5959,2.5962,2.5966,2.5989,2.5994,2.5931,2.5931,2.5931,0,0,2.5589,2.5611,2.5632,2.5677,2.5697,2.5728,2.5714,2.5749,2.5771,2.5771,2.5812,2.5826,2.5853,2.5899,2.5919,2.5912,2.5984,2.5966,2.5968,2.5971,2.5992,2.5998,2.6003,2.5933,2.5933,2.5933,0,0,2.5637,2.5659,2.5695,2.5715,2.5744,2.5755,2.5764,2.5793,2.5803,2.5845,2.5843,2.5869,2.5922,2.594,2.5956,2.6006,2.6003,2.6015,2.6036,2.6058,2.6063,2.6067,2.6082,2.6088,2.6019,2.6019,2.6019,0,2.5655,2.5704,2.5714,2.5748,2.5766,2.5766,2.5801,2.582,2.5857,2.5869,2.586,2.5923,2.5942,2.5989,2.6,2.6015,2.6022,2.6011,2.6062,2.6066,2.607,2.6085,2.6091,2.602,2.602,2.602,2.602,0,2.5723,2.5756,2.5782,2.5816,2.5838,2.5873,2.5886,2.5906,2.5909,2.592,2.596,2.5982,2.6014,2.6025,2.6029,2.6072,2.6066,2.606,2.6043,2.6077,2.6091,2.6096,2.6022,2.6022,2.6021,2.6021,0,0,2.5781,2.5819,2.5828,2.5842,2.5873,2.5898,2.593,2.5961,2.5976,2.6002,2.6027,2.6069,2.6062,2.608,2.6086,2.6105,2.6139,2.6095,2.6096,2.61,2.6183,2.6187,2.6193,2.6137,2.6139,2.614,2.618,0,2.583,2.5889,2.5897,2.5948,2.5977,2.5975,2.6003,2.6024,2.6035,2.6059,2.607,2.6099,2.6089,2.6099,2.6118,2.6131,2.6155,2.6128,2.6159,2.616,2.6151,2.6201,2.6205,2.6243,2.6186,2.6187,2.6188,0,2.5896,2.5921,2.5975,2.5997,2.601,2.6035,2.6061,2.6086,2.6108,2.6114,2.6132,2.6134,2.6165,2.6148,2.6189,2.617,2.6183,2.6191,2.6192,2.6194,2.6175,2.6202,2.6256,2.626,2.6196,2.6196,2.6195,0,2.5929,2.5976,2.6013,2.6026,2.6055,2.6072,2.6084,2.6105,2.6121,2.6144,2.6154,2.6181,2.6195,2.6214,2.6222,2.6209,2.6261,2.6246,2.6265,2.6264,2.6275,2.6274,2.6329,2.6287,2.6287,2.6286,2.6286,0,2.5981,2.6013,2.6028,2.6051,2.6085,2.6093,2.6127,2.6139,2.6157,2.618,2.618,2.6202,2.6212,2.6234,2.624,2.6271,2.6278,2.6282,2.6283,2.6281,2.628,2.6289,2.6285,2.6288,2.6288,2.6287,2.6287,0,2.6024,2.6036,2.6075,2.6098,2.6104,2.6129,2.6147,2.6168,2.6177,2.6206,2.6214,2.6228,2.6254,2.6263,2.6296,2.6299,2.6334,2.6334,2.6327,2.6327,2.6344,2.6341,2.6406,2.6413,2.6367,2.6368,2.6368,0,2.6056,2.608,2.6105,2.612,2.6133,2.6159,2.6175,2.6183,2.6199,2.6224,2.6241,2.6266,2.6287,2.6328,2.634,2.6364,2.6363,2.6383,2.6366,2.6362,2.636,2.6357,2.6358,2.6386,2.6387,2.6387,2.6387,0,2.611,2.6114,2.6138,2.6162,2.6181,2.6201,2.622,2.6233,2.6243,2.6261,2.6287,2.6303,2.6334,2.6359,2.6382,2.6393,2.6391,2.6393,2.6398,2.6395,2.6389,2.639,2.6333,2.6391,2.6391,2.639,2.639,2.639,2.6147,2.6167,2.6186,2.6211,2.6226,2.6243,2.6262,2.6273,2.6295,2.6321,2.6324,2.6352,2.6369,2.64,2.6412,2.6432,2.6426,2.6435,2.6436,2.6438,2.6438,2.6387,2.6437,2.6437,2.6437,2.6436,2.6436,0,2.6199,2.621,2.6233,2.6259,2.6278,2.6275,2.6295,2.631,2.6334,2.6351,2.6371,2.6399,2.6422,2.6435,2.6457,2.647,2.647,2.6476,2.6474,2.6476,2.6443,2.6435,2.6476,2.6476,2.6476,2.6476,2.6476,2.6476,2.6228,2.626,2.6265,2.6304,2.6315,2.6341,2.6353,2.6367,2.638,2.6412,2.643,2.6439,2.6453,2.6476,2.6496,2.6499,2.6506,2.6512,2.6514,2.6483,2.6479,2.6475,2.6467,2.6514,2.6514,2.6545,2.6545,2.6546]}]]